Regional Weather Roundup
Issued by NWS Albany, NY

Home | Current Version | Previous Version | Text Only | Print | Product List | Glossary On
Versions: 1 2 3 4 5 6 7 8 9 10 11 12 13 14 15 16 17 18 19 20 21 22 23 24 25 26 27
000
ASUS41 KALY 281910
RWRALY

NEW YORK STATE HOURLY WEATHER ROUNDUP
NATIONAL WEATHER SERVICE ALBANY NY
200 PM EST TUE FEB 28 2017

NOTE: "FAIR" INDICATES FEW OR NO CLOUDS BELOW 12,000 FEET WITH NO
SIGNIFICANT WEATHER AND/OR NO OBSTRUCTIONS TO VISIBILITY.

NYZ032-033-038>043-046>054-057>066-NYZ062>081-082-084-282000-
EAST


CITY           SKY/WX    TMP DP  RH WIND       PRES   REMARKS
ALBANY         MOSUNNY   59  31  34 S9        30.19F
GLENS FALLS    PTSUNNY   53  32  44 S5        30.20F
POUGHKEEPSIE   SUNNY     60  33  36 S8        30.19F
NEWBURGH       SUNNY     59  37  44 SE10      30.21F
MONTGOMERY     SUNNY     63  36  36 SE6       30.18F
WHITE PLAINS   MOSUNNY   57  43  59 SE9       30.22F
ISLIP          PTSUNNY   57  49  74 SE8       30.24F
NEW YORK CITY  PTSUNNY   52  40  63 NE10      30.23F
CENTRAL PARK   MOSUNNY   57  43  59 E8        30.25F
$$

NYZ005>009-017-018-044>046-055-056-282000-
CENTRAL


CITY           SKY/WX    TMP DP  RH WIND       PRES   REMARKS
FULTON         CLOUDY    53  36  52 SE3       30.09F
SYRACUSE       CLOUDY    57  35  43 S9        30.09F
ROME           CLOUDY    52  37  56 E13       30.14F
ELMIRA         MOSUNNY   62  31  31 S12G17    30.06F
BINGHAMTON     CLOUDY    57  31  37 S13G20    30.10F
MONTICELLO     SUNNY     59  34  38 S14       30.18F
$$

NYZ026>034-041>043-087-282000-
NORTH


CITY           SKY/WX    TMP DP  RH WIND       PRES   REMARKS
WATERTOWN      CLOUDY    53  36  52 SE8       30.08F
FORT DRUM      NOT AVBL
OGDENSBURG     FAIR      54  30  39 S5        30.11F
MASSENA        CLOUDY    48  29  47 NE13      30.15F
SARANAC LAKE   PTSUNNY   44  31  60 S7        30.13F
PLATTSBURGH    MOSUNNY   48  29  47 SE15      30.20F
$$

NYZ001>004-010>016-019>021-085-282000-
WEST


CITY           SKY/WX    TMP DP  RH WIND       PRES   REMARKS
NIAGARA FALLS  CLOUDY    57  38  48 SE8       29.98F
BUFFALO        LGT RAIN  58  37  45 S20       29.99F
DUNKIRK        CLOUDY    59  38  45 S17G32    29.97F
JAMESTOWN      CLOUDY    54  36  50 S12G17    29.98F
WELLSVILLE     CLOUDY    56  32  40 S12G22    30.06F
ROCHESTER      CLOUDY    58  37  45 S8        30.03F
PENN YAN       CLOUDY    58  33  39 S9        30.06F
$$

             KEY
       WCI = WIND CHILL INDEX
       VSB = VISIBILITY
       HX  = HEAT INDEX
$$




USA.gov is the U.S. government's official web portal to all federal, state and local government web resources and services.